GW7138 Weather Reports


time (UTC)temp
C
wind
direction
speed
KPH
gust
KPH
rain 1hr
cm
rain 24hr
cm
rain mn
cm
humidity
%
barometer
mb
20260507114017 26 272 0.0 4.8 0.00 0.00 0.00 95 1012.0
20260507113514 26 272 0.0 0.0 0.00 0.00 0.00 95 1012.0
20260507113012 26 272 0.0 3.2 0.00 0.00 0.00 95 1012.4
20260507112509 26 272 3.2 6.4 0.00 0.00 0.00 95 1012.0
20260507112006 26 272 0.0 4.8 0.00 0.00 0.00 94 1012.4
20260507111503 26 272 0.0 0.0 0.00 0.00 0.00 94 1012.4
20260507110959 26 272 0.0 0.0 0.00 0.00 0.00 94 1012.4
20260507110455 26 272 0.0 0.0 0.00 0.00 0.00 94 1012.4
20260507105952 26 272 0.0 0.0 0.00 0.03 0.03 94 1012.4
20260507105449 26 272 0.0 0.0 0.00 0.03 0.03 94 1012.4
20260507104945 26 272 0.0 0.0 0.00 0.03 0.03 94 1012.4
20260507104443 26 272 0.0 0.0 0.00 0.03 0.03 94 1012.4
20260507103938 26 272 0.0 0.0 0.00 0.03 0.03 94 1012.4
20260507103435 26 272 0.0 0.0 0.00 0.03 0.03 94 1012.4
20260507102931 26 272 0.0 0.0 0.00 0.03 0.03 93 1012.4
20260507102428 26 272 0.0 0.0 0.00 0.03 0.03 93 1012.4
20260507101925 26 272 0.0 0.0 0.00 0.03 0.03 93 1012.4
20260507101420 26 272 0.0 0.0 0.00 0.03 0.03 93 1012.4
20260507100916 26 272 3.2 6.4 0.00 0.03 0.03 93 1012.4
20260507100414 26 272 0.0 0.0 0.00 0.03 0.03 93 1012.0
20260507095912 26 272 0.0 0.0 0.00 0.03 0.03 93 1012.0
20260507095409 26 272 0.0 0.0 0.00 0.03 0.03 93 1012.0
20260507094906 27 272 4.8 6.4 0.00 0.03 0.03 93 1012.0
20260507094402 27 272 4.8 9.7 0.00 0.03 0.03 92 1012.4
20260507093859 27 272 0.0 0.0 0.00 0.03 0.03 92 1012.4
20260507093358 27 272 0.0 0.0 0.00 0.03 0.03 92 1012.4
20260507092856 27 272 0.0 0.0 0.00 0.03 0.03 92 1012.4
20260507092351 27 272 1.6 6.4 0.00 0.03 0.03 92 1012.4
20260507091848 27 272 0.0 0.0 0.00 0.03 0.03 92 1012.4
20260507091345 27 272 1.6 4.8 0.00 0.03 0.03 92 1012.4
20260507090840 27 272 4.8 6.4 0.00 0.03 0.03 92 1012.4
20260507090337 27 272 3.2 8.0 0.00 0.03 0.03 91 1012.4
20260507085834 27 272 4.8 6.4 0.00 0.03 0.03 91 1012.4
20260507085331 27 272 0.0 0.0 0.00 0.03 0.03 91 1012.4
20260507084828 27 272 0.0 0.0 0.00 0.03 0.03 91 1012.4
20260507084324 27 272 0.0 0.0 0.00 0.03 0.03 90 1012.4
20260507083822 27 272 0.0 0.0 0.00 0.03 0.03 90 1012.4
20260507083318 27 272 0.0 0.0 0.00 0.03 0.03 90 1012.4
20260507082814 27 272 1.6 6.4 0.00 0.03 0.03 90 1012.4
20260507082310 27 272 1.6 4.8 0.00 0.03 0.03 89 1012.4
20260507081808 27 272 0.0 0.0 0.00 0.03 0.03 89 1012.4
20260507081303 27 272 1.6 4.8 0.00 0.03 0.03 88 1012.0
20260507080800 27 272 3.2 6.4 0.00 0.03 0.03 88 1012.0
20260507080257 27 272 8.0 12.9 0.00 0.03 0.03 87 1012.4
20260507075752 27 268 1.6 6.4 0.00 0.03 0.03 88 1012.0
20260507075248 27 265 3.2 8.0 0.00 0.03 0.03 87 1012.0
20260507074744 27 269 6.4 9.7 0.00 0.03 0.03 87 1012.0
20260507074243 27 269 3.2 8.0 0.00 0.03 0.03 88 1012.0
20260507073739 28 269 1.6 4.8 0.00 0.03 0.03 87 1012.0
20260507073236 28 269 4.8 8.0 0.00 0.03 0.03 87 1012.0
20260507072734 28 263 8.0 12.9 0.00 0.03 0.03 86 1012.0
20260507072231 28 262 6.4 8.0 0.00 0.03 0.03 86 1011.7
20260507071728 28 276 12.9 19.3 0.00 0.03 0.03 87 1011.7
20260507071224 28 241 3.2 11.3 0.00 0.03 0.03 86 1011.7
20260507070721 27 245 1.6 6.4 0.00 0.03 0.03 90 1011.7
20260507070218 27 261 0.0 0.0 0.00 0.03 0.03 90 1011.7
20260507065715 27 261 0.0 0.0 0.00 0.03 0.03 90 1011.7
20260507065212 27 261 0.0 0.0 0.00 0.03 0.03 90 1011.7
20260507064709 27 261 0.0 0.0 0.00 0.03 0.03 90 1011.3
20260507064208 27 261 0.0 0.0 0.00 0.03 0.03 89 1011.3
20260507063705 27 261 0.0 0.0 0.00 0.03 0.03 90 1011.3
20260507063201 27 261 0.0 0.0 0.00 0.03 0.03 91 1011.3
20260507062658 27 285 0.0 0.0 0.00 0.03 0.03 91 1011.3
20260507062156 27 293 0.0 0.0 0.00 0.03 0.03 91 1011.0
20260507061654 27 293 0.0 0.0 0.00 0.03 0.03 91 1010.7
20260507061152 27 293 0.0 0.0 0.00 0.03 0.03 90 1010.7
20260507060649 27 293 0.0 0.0 0.00 0.03 0.03 90 1010.7
20260507060145 27 293 0.0 0.0 0.00 0.03 0.03 91 1010.7
20260507055641 27 293 0.0 0.0 0.00 0.03 0.03 90 1010.3
20260507055137 27 293 0.0 0.0 0.00 0.03 0.03 90 1010.7
20260507054633 27 293 0.0 0.0 0.00 0.03 0.03 90 1010.7
20260507054130 28 293 0.0 0.0 0.00 0.03 0.03 88 1010.3
20260507053628 28 293 1.6 6.4 0.00 0.03 0.03 85 1010.3
20260507053126 28 284 6.4 14.5 0.00 0.03 0.03 85 1010.3
20260507052624 28 247 1.6 6.4 0.00 0.03 0.03 85 1010.3
20260507052120 28 250 4.8 9.7 0.00 0.03 0.03 85 1010.3
20260507051618 28 254 4.8 9.7 0.00 0.03 0.03 84 1010.3
20260507051115 28 257 3.2 8.0 0.00 0.03 0.03 84 1010.3
20260507050611 28 243 8.0 14.5 0.00 0.03 0.03 83 1010.0
20260507050108 29 226 6.4 12.9 0.00 0.03 0.03 83 1010.3
20260507045605 29 191 8.0 17.7 0.00 0.03 0.03 82 1010.0
20260507045102 29 238 3.2 8.0 0.00 0.03 0.03 82 1010.0
20260507044558 29 237 9.7 14.5 0.00 0.03 0.03 81 1010.0
20260507044056 29 246 9.7 16.1 0.00 0.03 0.03 82 1009.6
20260507043551 28 234 3.2 9.7 0.00 0.03 0.03 83 1009.6
20260507043049 28 324 0.0 0.0 0.00 0.03 0.03 86 1009.6
20260507042544 28 324 0.0 0.0 0.00 0.03 0.03 86 1009.6
20260507042040 28 324 0.0 0.0 0.00 0.03 0.03 86 1009.6
20260507041537 28 324 0.0 0.0 0.00 0.03 0.03 84 1009.6
20260507041034 28 288 1.6 9.7 0.00 0.03 0.03 84 1009.3
20260507040531 29 278 0.0 0.0 0.00 0.03 0.03 81 1009.3
20260507040026 29 251 1.6 9.7 0.00 0.03 0.03 82 1009.3
20260507035523 30 251 0.0 0.0 0.00 0.03 0.03 80 1009.3
20260507035020 30 251 1.6 6.4 0.00 0.03 0.03 78 1009.3
20260507034517 29 234 3.2 11.3 0.00 0.03 0.03 80 1009.0
20260507034014 28 218 3.2 6.4 0.00 0.03 0.03 82 1009.3
20260507033512 28 225 8.0 11.3 0.00 0.03 0.03 82 1009.3
20260507033009 28 172 3.2 12.9 0.00 0.03 0.03 83 1009.3
20260507032506 29 242 16.1 20.9 0.00 0.03 0.03 83 1009.0
20260507032002 29 237 12.9 17.7 0.00 0.03 0.03 82 1009.0
20260507031458 29 242 14.5 20.9 0.00 0.03 0.03 81 1009.0
20260507030955 30 237 8.0 12.9 0.00 0.03 0.03 79 1009.0
20260507030452 30 238 12.9 16.1 0.00 0.03 0.03 78 1009.0
20260507025950 30 240 9.7 16.1 0.00 0.03 0.03 78 1009.0
20260507025447 30 256 8.0 16.1 0.00 0.03 0.03 79 1009.0
20260507024944 30 238 0.0 0.0 0.00 0.03 0.03 79 1009.0
20260507024442 29 238 6.4 11.3 0.00 0.03 0.03 79 1009.0
20260507023937 29 306 0.0 0.0 0.00 0.03 0.03 79 1009.0
20260507023434 29 248 9.7 12.9 0.00 0.03 0.03 78 1009.0
20260507022931 29 240 9.7 12.9 0.00 0.03 0.03 78 1009.0
20260507022429 29 238 12.9 17.7 0.00 0.03 0.03 77 1009.3
20260507021924 30 274 6.4 12.9 0.00 0.03 0.03 77 1009.0
20260507021419 29 243 6.4 8.0 0.00 0.03 0.03 76 1009.0
20260507020918 30 243 9.7 14.5 0.00 0.03 0.03 75 1009.0
20260507020414 30 229 12.9 17.7 0.00 0.03 0.03 75 1009.0
20260507015911 29 233 11.3 19.3 0.00 0.03 0.03 76 1009.0
20260507015409 29 240 12.9 16.1 0.00 0.03 0.03 78 1009.0
20260507014906 28 255 6.4 14.5 0.00 0.03 0.03 81 1009.3
20260507014402 28 240 12.9 17.7 0.00 0.03 0.03 85 1009.3
20260507013859 27 251 12.9 24.1 0.00 0.03 0.03 88 1009.3
20260507013356 28 249 16.1 24.1 0.00 0.03 0.03 88 1009.3
20260507012853 28 255 14.5 24.1 0.00 0.00 0.00 85 1009.3
20260507012349 28 220 12.9 17.7 0.00 0.00 0.00 84 1009.6
20260507011847 28 221 14.5 20.9 0.00 0.00 0.00 84 1009.6
20260507011344 28 216 16.1 20.9 0.00 0.00 0.00 84 1009.6
20260507010843 28 235 16.1 24.1 0.00 0.00 0.00 83 1009.6
20260507010339 28 226 17.7 20.9 0.00 0.00 0.00 83 1009.6
20260507005836 28 228 16.1 25.7 0.00 0.00 0.00 84 1009.6
20260507005333 28 220 19.3 29.0 0.00 0.00 0.00 84 1009.6
20260507004830 29 244 16.1 25.7 0.00 0.00 0.00 84 1009.6
20260507004327 29 265 24.1 30.6 0.00 0.00 0.00 82 1009.6
20260507003824 30 222 24.1 30.6 0.00 0.00 0.00 79 1009.3
20260507003319 30 218 27.4 32.2 0.00 0.00 0.00 79 1009.6
20260507002814 30 227 19.3 27.4 0.00 0.00 0.00 78 1009.6
20260507002311 30 233 22.5 29.0 0.00 0.00 0.00 79 1009.6
20260507001809 30 241 24.1 32.2 0.00 0.00 0.00 79 1009.6
20260507001306 30 245 22.5 30.6 0.00 0.00 0.00 79 1009.6
20260507000802 30 232 20.9 37.0 0.00 0.00 0.00 78 1009.6
20260507000259 30 231 20.9 35.4 0.00 0.00 0.00 80 1010.0
20260506235754 30 230 8.0 19.3 0.00 0.00 0.00 81 1009.6
20260506235250 30 222 20.9 32.2 0.00 0.00 0.00 80 1010.0
20260506234747 30 225 19.3 27.4 0.00 0.00 0.00 79 1009.6
20260506234244 30 228 27.4 41.8 0.00 0.00 0.00 78 1010.0
20260506233742 30 229 22.5 29.0 0.00 0.00 0.00 78 1010.0
20260506233238 30 232 22.5 33.8 0.00 0.00 0.00 79 1010.0
20260506232735 30 228 24.1 32.2 0.00 0.00 0.00 79 1010.3
20260506232236 30 235 20.9 35.4 0.00 0.00 0.00 79 1010.3
20260506231733 30 236 24.1 32.2 0.00 0.00 0.00 80 1010.3
20260506231231 30 187 16.1 27.4 0.00 0.00 0.00 79 1010.3
20260506230728 30 213 22.5 30.6 0.00 0.00 0.00 79 1010.7
20260506230225 30 227 25.7 35.4 0.00 0.00 0.00 79 1010.3
20260506225721 30 230 25.7 35.4 0.00 0.00 0.00 78 1010.3
20260506225219 30 225 19.3 30.6 0.00 0.00 0.00 77 1010.7
20260506224715 30 238 19.3 32.2 0.00 0.00 0.00 78 1010.7
20260506224212 30 232 20.9 25.7 0.00 0.00 0.00 80 1010.7
20260506223708 30 247 22.5 30.6 0.00 0.00 0.00 80 1011.0
20260506223204 30 233 24.1 40.2 0.00 0.00 0.00 81 1011.0
20260506222701 30 231 22.5 30.6 0.00 0.00 0.00 80 1011.0
20260506222156 30 227 25.7 38.6 0.00 0.00 0.00 80 1011.0
20260506221655 30 230 22.5 29.0 0.00 0.00 0.00 81 1011.3
20260506221153 30 213 17.7 33.8 0.00 0.00 0.00 80 1011.0
20260506220649 30 223 25.7 32.2 0.00 0.00 0.00 79 1011.3
20260506220144 30 221 22.5 29.0 0.00 0.00 0.00 80 1011.3
20260506215641 30 233 20.9 30.6 0.00 0.00 0.00 80 1011.3
20260506215136 30 220 17.7 27.4 0.00 0.00 0.00 79 1011.3
20260506214634 30 224 19.3 27.4 0.00 0.00 0.00 79 1011.3
20260506214131 30 217 24.1 38.6 0.00 0.00 0.00 80 1011.3
20260506213629 30 239 20.9 29.0 0.00 0.00 0.00 81 1011.7
20260506213126 30 219 17.7 24.1 0.00 0.00 0.00 82 1011.7
20260506212623 30 224 22.5 37.0 0.00 0.00 0.00 81 1011.7
20260506212118 30 223 22.5 30.6 0.00 0.00 0.00 82 1011.7
20260506211614 30 220 20.9 30.6 0.00 0.00 0.00 81 1011.7
20260506211111 30 242 14.5 19.3 0.00 0.00 0.00 80 1012.0
20260506210608 30 224 17.7 22.5 0.00 0.00 0.00 79 1011.7
20260506210104 30 239 16.1 22.5 0.00 0.00 0.00 79 1011.7
20260506205601 30 234 22.5 29.0 0.00 0.00 0.00 79 1011.3
20260506205056 30 229 17.7 25.7 0.00 0.00 0.00 80 1011.7
20260506204554 30 234 17.7 29.0 0.00 0.00 0.00 80 1011.7
20260506204051 30 232 22.5 29.0 0.00 0.00 0.00 81 1011.7
20260506203550 29 227 29.0 37.0 0.00 0.00 0.00 82 1011.7
20260506203046 29 196 14.5 22.5 0.00 0.00 0.00 82 1011.7
20260506202544 29 238 12.9 16.1 0.00 0.00 0.00 84 1011.7
20260506202040 29 248 12.9 24.1 0.00 0.00 0.00 84 1012.0
20260506201538 29 230 19.3 27.4 0.00 0.00 0.00 84 1012.0
20260506201034 29 225 19.3 29.0 0.00 0.00 0.00 84 1012.0
20260506200530 29 230 17.7 20.9 0.00 0.00 0.00 84 1011.7
20260506200027 29 234 22.5 29.0 0.00 0.00 0.00 84 1011.7
20260506195524 29 224 19.3 29.0 0.00 0.00 0.00 84 1011.7
20260506195020 29 250 16.1 24.1 0.00 0.00 0.00 84 1011.7
20260506194518 29 235 19.3 24.1 0.00 0.00 0.00 85 1011.7
20260506194014 29 222 20.9 29.0 0.00 0.00 0.00 85 1011.3
20260506193511 29 224 20.9 25.7 0.00 0.00 0.00 85 1011.3
20260506193008 29 236 20.9 30.6 0.00 0.00 0.00 85 1011.3
20260506192505 29 240 19.3 27.4 0.00 0.00 0.00 85 1011.3
20260506192001 29 227 22.5 29.0 0.00 0.00 0.00 85 1011.3
20260506191458 29 224 20.9 29.0 0.00 0.00 0.00 84 1011.3
20260506190954 29 227 17.7 22.5 0.00 0.00 0.00 84 1011.3
20260506190451 29 222 14.5 25.7 0.00 0.00 0.00 83 1011.3
20260506185948 29 238 14.5 20.9 0.00 0.00 0.00 83 1011.3
20260506185445 29 256 11.3 27.4 0.00 0.00 0.00 83 1011.3
20260506184942 29 235 12.9 25.7 0.00 0.00 0.00 84 1011.3
20260506184439 29 223 17.7 27.4 0.00 0.00 0.00 84 1011.3
20260506183936 28 187 8.0 14.5 0.00 0.00 0.00 84 1011.3
20260506183431 28 234 9.7 14.5 0.00 0.00 0.00 84 1011.3
20260506182929 28 244 1.6 8.0 0.00 0.00 0.00 84 1011.3
20260506182426 28 217 0.0 0.0 0.00 0.00 0.00 84 1011.3
20260506181923 28 229 9.7 16.1 0.00 0.00 0.00 83 1011.0
20260506181421 28 244 12.9 22.5 0.00 0.00 0.00 83 1011.0
20260506180918 28 232 14.5 20.9 0.00 0.00 0.00 83 1011.0
20260506180414 28 229 9.7 16.1 0.00 0.00 0.00 83 1011.0
20260506175911 28 230 17.7 22.5 0.00 0.00 0.00 83 1011.0
20260506175408 28 232 14.5 25.7 0.00 0.00 0.00 83 1011.0
20260506174905 28 241 16.1 24.1 0.00 0.00 0.00 84 1010.7
20260506174402 28 225 11.3 17.7 0.00 0.00 0.00 84 1010.7
20260506173859 28 248 16.1 24.1 0.00 0.00 0.00 84 1010.7
20260506173356 28 244 20.9 29.0 0.00 0.00 0.00 84 1010.7
20260506172853 28 229 16.1 25.7 0.00 0.00 0.00 84 1010.7
20260506172350 28 242 14.5 22.5 0.00 0.00 0.00 84 1010.3
20260506171847 28 226 17.7 27.4 0.00 0.00 0.00 84 1010.3
20260506171344 28 232 19.3 24.1 0.00 0.00 0.00 84 1010.3
20260506170842 28 244 17.7 27.4 0.00 0.00 0.00 83 1010.0
20260506170338 28 228 20.9 25.7 0.00 0.00 0.00 84 1010.0
20260506165837 28 221 17.7 25.7 0.00 0.00 0.00 83 1009.6
20260506165335 28 222 17.7 27.4 0.00 0.00 0.00 83 1009.6
20260506164831 28 214 22.5 30.6 0.00 0.00 0.00 83 1009.6
20260506164327 28 219 24.1 29.0 0.00 0.00 0.00 83 1009.6
20260506163825 28 228 20.9 29.0 0.00 0.00 0.00 83 1009.3
20260506163319 28 216 19.3 25.7 0.00 0.00 0.00 83 1009.6
20260506162815 28 220 16.1 20.9 0.00 0.00 0.00 83 1009.6
20260506162313 28 230 14.5 22.5 0.00 0.00 0.00 84 1009.3
20260506161810 28 224 14.5 19.3 0.00 0.00 0.00 84 1009.6
20260506161307 28 224 16.1 24.1 0.00 0.00 0.00 84 1009.6
20260506155414 28 223 14.5 25.7 0.00 0.00 0.00 84 1009.6
20260506153536 28 223 14.5 25.7 0.00 0.00 0.00 84 1009.6
20260506153033 28 224 20.9 25.7 0.00 0.00 0.00 84 1009.6
20260506152531 28 224 20.9 25.7 0.00 0.00 0.00 84 1009.6
20260506152029 28 218 14.5 20.9 0.00 0.00 0.00 84 1009.6
20260506151526 28 233 14.5 20.9 0.00 0.00 0.00 85 1009.6
20260506151023 28 242 9.7 14.5 0.00 0.00 0.00 85 1009.6
20260506150519 28 197 1.6 8.0 0.00 0.00 0.00 86 1009.6
20260506150017 28 229 14.5 22.5 0.00 0.00 0.00 86 1009.6
20260506145513 28 226 19.3 24.1 0.00 0.00 0.00 86 1009.6
20260506145011 28 241 11.3 20.9 0.00 0.00 0.00 86 1009.6
20260506144507 28 235 9.7 20.9 0.00 0.00 0.00 86 1009.6
20260506144005 28 244 0.0 0.0 0.00 0.00 0.00 86 1009.6
20260506143502 28 231 4.8 14.5 0.00 0.00 0.00 85 1009.6
20260506143000 28 231 11.3 14.5 0.00 0.00 0.00 85 1009.6
20260506142458 28 221 17.7 24.1 0.00 0.00 0.00 86 1009.6
20260506141955 28 231 11.3 17.7 0.00 0.00 0.00 86 1009.6
20260506141453 28 216 16.1 20.9 0.00 0.00 0.00 87 1010.0
20260506140952 28 249 11.3 20.9 0.00 0.00 0.00 87 1010.0
20260506140448 28 239 8.0 12.9 0.00 0.00 0.00 88 1010.0
20260506135945 28 232 12.9 20.9 0.00 0.00 0.00 88 1010.0
20260506135442 28 236 12.9 24.1 0.00 0.00 0.00 88 1010.0
20260506134938 28 210 14.5 25.7 0.00 0.00 0.00 88 1010.0
20260506134434 28 219 8.0 19.3 0.00 0.00 0.00 88 1010.3
20260506133931 28 238 19.3 30.6 0.00 0.00 0.00 88 1010.0
20260506133429 28 220 14.5 20.9 0.00 0.00 0.00 89 1010.0
20260506132925 28 223 16.1 24.1 0.00 0.00 0.00 88 1010.0
20260506132422 28 216 19.3 29.0 0.00 0.00 0.00 87 1010.0
20260506131920 28 258 12.9 20.9 0.00 0.00 0.00 86 1010.0
20260506131416 28 229 9.7 20.9 0.00 0.00 0.00 85 1010.0
20260506130913 28 228 11.3 17.7 0.00 0.00 0.00 85 1010.0
20260506130409 28 226 9.7 17.7 0.00 0.00 0.00 84 1010.0
20260506125908 28 222 14.5 17.7 0.00 0.00 0.00 84 1010.0
20260506125406 28 237 17.7 22.5 0.00 0.00 0.00 85 1009.6
20260506124904 28 225 12.9 19.3 0.00 0.00 0.00 86 1010.0
20260506124400 28 230 12.9 20.9 0.00 0.00 0.00 87 1010.0
20260506123858 28 243 8.0 14.5 0.00 0.00 0.00 87 1010.0
20260506123356 28 211 14.5 20.9 0.00 0.00 0.00 89 1010.0
20260506122853 27 237 16.1 22.5 0.00 0.00 0.00 91 1010.0
20260506122350 26 278 0.0 0.0 0.00 0.00 0.00 92 1010.3
20260506121849 26 282 0.0 0.0 0.00 0.00 0.00 92 1010.3
20260506121345 26 282 0.0 0.0 0.00 0.00 0.00 91 1010.7
20260506120842 27 282 0.0 0.0 0.00 0.00 0.00 90 1010.7
20260506120340 27 282 0.0 0.0 0.00 0.00 0.00 88 1010.7
20260506115837 28 252 3.2 8.0 0.00 0.00 0.00 87 1010.7
20260506115335 27 238 9.7 16.1 0.00 0.00 0.00 86 1010.7
20260506114833 27 221 14.5 20.9 0.00 0.00 0.00 85 1010.7
20260506114330 27 234 12.9 19.3 0.00 0.00 0.00 84 1010.7